DW9080 Weather Reports


time (UTC)temp
C
wind
direction
speed
KPH
gust
KPH
rain 1hr
cm
rain 24hr
cm
rain mn
cm
humidity
%
barometer
mb
20200229104008 5 259 0.0 0.0 0.00 0.00 0.00 77 1028.1
20200229103508 5 259 0.0 0.0 0.00 0.00 0.00 77 1028.1
20200229103018 6 258 0.0 0.0 0.00 0.00 0.00 77 1028.1
20200229102502 6 259 0.0 0.0 0.00 0.00 0.00 77 1028.0
20200229102130 6 273 0.0 0.0 0.00 0.00 0.00 77 1028.2
20200229102001 6 269 0.0 0.0 0.00 0.00 0.00 77 1028.2
20200229101103 6 263 0.0 0.0 0.00 0.00 0.00 77 1028.2
20200229101004 6 240 0.0 0.0 0.00 0.00 0.00 77 1028.1
20200229100603 6 267 0.0 0.0 0.00 0.00 0.00 77 1028.2
20200229100502 6 246 0.0 0.0 0.00 0.00 0.00 77 1028.2
20200229100141 6 277 0.0 0.0 0.00 0.00 0.00 77 1028.2
20200229095559 6 264 0.0 0.0 0.00 0.00 0.00 77 1028.2
20200229095103 6 238 0.0 0.0 0.00 0.00 0.00 77 1028.2
20200229094624 6 238 0.0 0.0 0.00 0.00 0.00 77 1028.2
20200229094056 6 238 0.0 0.0 0.00 0.00 0.00 77 1028.2
20200229093602 6 238 0.0 0.0 0.00 0.00 0.00 77 1028.2
20200229093140 6 238 0.0 0.0 0.00 0.00 0.00 77 1028.2
20200229092608 6 238 0.0 0.0 0.00 0.00 0.00 76 1028.3
20200229092053 6 252 0.0 0.0 0.00 0.00 0.00 75 1028.4
20200229091102 7 82 0.0 0.0 0.00 0.00 0.00 75 1028.5
20200229090555 7 82 0.0 0.0 0.00 0.00 0.00 75 1028.6
20200229090202 7 82 0.0 0.0 0.00 0.00 0.00 75 1028.6
20200229085602 7 82 0.0 0.0 0.00 0.00 0.00 74 1028.6
20200229085053 7 80 0.0 0.0 0.00 0.00 0.00 74 1028.6
20200229084653 7 80 0.0 0.0 0.00 0.00 0.00 73 1028.7
20200229084059 7 82 0.0 0.0 0.00 0.00 0.00 72 1028.7
20200229083550 7 81 0.0 0.0 0.00 0.00 0.00 73 1028.7
20200229083102 7 82 0.0 0.0 0.00 0.00 0.00 71 1028.7
20200229082548 7 82 0.0 0.0 0.00 0.00 0.00 71 1028.8
20200229082048 8 82 0.0 0.0 0.00 0.00 0.00 71 1028.8
20200229081107 8 132 0.0 0.0 0.00 0.00 0.00 71 1028.9
20200229080548 8 58 0.0 0.0 0.00 0.00 0.00 70 1029.0
20200229080109 8 58 0.0 0.0 0.00 0.00 0.00 70 1029.0
20200229075546 8 58 0.0 0.0 0.00 0.00 0.00 70 1029.1
20200229075046 8 58 0.0 0.0 0.00 0.00 0.00 70 1029.3
20200229074621 8 58 0.0 0.0 0.00 0.00 0.00 69 1029.4
20200229074109 8 58 0.0 0.0 0.00 0.00 0.00 68 1029.4
20200229073543 8 58 0.0 0.0 0.00 0.00 0.00 68 1029.5
20200229073148 8 58 0.0 0.0 0.00 0.00 0.00 68 1029.5
20200229072543 8 58 0.0 0.0 0.00 0.00 0.00 68 1029.6
20200229072046 8 58 0.0 0.0 0.00 0.00 0.00 69 1029.6
20200229071042 8 58 0.0 0.0 0.00 0.00 0.00 69 1029.6
20200229070547 8 58 0.0 0.0 0.00 0.00 0.00 68 1029.6
20200229070210 8 58 0.0 0.0 0.00 0.00 0.00 67 1029.7
20200229065538 8 58 0.0 0.0 0.00 0.00 0.00 67 1029.7
20200229065038 8 58 0.0 0.0 0.00 0.00 0.00 67 1029.7
20200229064556 8 58 0.0 1.6 0.00 0.00 0.00 66 1029.6
20200229064037 8 58 0.0 4.8 0.00 0.00 0.00 66 1029.6
20200229063541 8 76 0.0 4.8 0.00 0.00 0.00 66 1029.7
20200229063047 8 134 0.0 1.6 0.00 0.00 0.00 66 1029.7
20200229062546 8 139 0.0 1.6 0.00 0.00 0.00 65 1029.8
20200229062036 8 120 0.0 1.6 0.00 0.00 0.00 65 1029.9
20200229061041 8 114 0.0 8.0 0.00 0.00 0.00 64 1030.0
20200229060536 9 39 0.0 0.0 0.00 0.00 0.00 63 1030.1
20200229060103 9 24 0.0 3.2 0.00 0.00 0.00 63 1030.1
20200229055538 9 281 0.0 4.8 0.00 0.00 0.00 62 1030.1
20200229055036 9 80 0.0 4.8 0.00 0.00 0.00 62 1030.2
20200229054628 10 297 0.0 6.4 0.00 0.00 0.00 61 1030.2
20200229054033 10 64 0.0 8.0 0.00 0.00 0.00 61 1030.1
20200229053536 10 63 0.0 6.4 0.00 0.00 0.00 60 1030.1
20200229053105 10 96 0.0 6.4 0.00 0.00 0.00 60 1030.1
20200229052540 10 51 0.0 14.5 0.00 0.00 0.00 60 1030.0
20200229052033 10 73 0.0 14.5 0.00 0.00 0.00 59 1030.0
20200229051032 10 125 0.0 9.7 0.00 0.00 0.00 58 1029.9
20200229050530 10 75 0.0 11.3 0.00 0.00 0.00 58 1029.8
20200229050057 10 49 4.8 12.9 0.00 0.00 0.00 57 1029.7
20200229045550 10 74 4.8 12.9 0.00 0.00 0.00 57 1029.8
20200229045027 10 63 1.6 12.9 0.00 0.00 0.00 56 1029.8
20200229044610 10 42 3.2 11.3 0.00 0.00 0.00 56 1029.7
20200229044037 11 79 3.2 9.7 0.00 0.00 0.00 55 1029.7
20200229043607 11 73 0.0 9.7 0.00 0.00 0.00 55 1029.7
20200229043049 11 70 0.0 14.5 0.00 0.00 0.00 54 1029.8
20200229042532 11 91 3.2 14.5 0.00 0.00 0.00 54 1029.8
20200229042035 11 68 1.6 11.3 0.00 0.00 0.00 54 1029.7
20200229041029 11 86 3.2 9.7 0.00 0.00 0.00 53 1029.6
20200229040538 11 32 0.0 8.0 0.00 0.00 0.00 53 1029.6
20200229040116 11 70 0.0 9.7 0.00 0.00 0.00 53 1029.6
20200229035528 11 70 0.0 9.7 0.00 0.00 0.00 53 1029.5
20200229035056 11 76 1.6 14.5 0.00 0.00 0.00 52 1029.4
20200229034550 12 82 3.2 14.5 0.00 0.00 0.00 52 1029.2
20200229034037 12 139 3.2 17.7 0.00 0.00 0.00 52 1029.1
20200229033527 12 104 8.0 17.7 0.00 0.00 0.00 52 1028.9
20200229033033 12 67 4.8 17.7 0.00 0.00 0.00 52 1028.9
20200229032527 12 8 6.4 14.5 0.00 0.00 0.00 52 1028.7
20200229032027 12 73 4.8 19.3 0.00 0.00 0.00 51 1028.8
20200229031046 12 120 3.2 19.3 0.00 0.00 0.00 51 1028.6
20200229030535 12 95 8.0 19.3 0.00 0.00 0.00 51 1028.4
20200229030122 12 112 6.4 19.3 0.00 0.00 0.00 51 1028.3
20200229025526 12 93 6.4 20.9 0.00 0.00 0.00 51 1028.2
20200229025034 12 89 8.0 20.9 0.00 0.00 0.00 50 1028.1
20200229024542 12 76 8.0 17.7 0.00 0.00 0.00 50 1028.1
20200229024033 13 107 8.0 20.9 0.00 0.00 0.00 50 1028.0
20200229023534 13 74 8.0 20.9 0.00 0.00 0.00 50 1027.9
20200229023052 13 74 8.0 19.3 0.00 0.00 0.00 50 1027.9
20200229022527 13 316 8.0 16.1 0.00 0.00 0.00 49 1027.8
20200229022024 13 79 6.4 19.3 0.00 0.00 0.00 49 1027.7
20200229021026 13 82 8.0 19.3 0.00 0.00 0.00 49 1027.4
20200229020532 13 68 6.4 19.3 0.00 0.00 0.00 48 1027.2
20200229020031 13 79 6.4 19.3 0.00 0.00 0.00 48 1027.2
20200229015548 14 148 11.3 20.9 0.00 0.00 0.00 48 1027.1
20200229015024 14 77 9.7 20.9 0.00 0.00 0.00 47 1027.0
20200229014546 14 117 11.3 22.5 0.00 0.00 0.00 47 1027.0
20200229014026 14 89 12.9 24.1 0.00 0.00 0.00 47 1027.0
20200229013525 15 62 11.3 20.9 0.00 0.00 0.00 46 1026.9
20200229013051 15 125 9.7 20.9 0.00 0.00 0.00 46 1026.9
20200229012531 15 136 16.1 22.5 0.00 0.00 0.00 45 1026.8
20200229012023 15 96 9.7 25.7 0.00 0.00 0.00 45 1026.8
20200229011026 16 79 11.3 22.5 0.00 0.00 0.00 43 1026.6
20200229010529 16 77 11.3 24.1 0.00 0.00 0.00 43 1026.6
20200229010104 16 84 11.3 24.1 0.00 0.00 0.00 42 1026.6
20200229005526 16 88 12.9 24.1 0.00 0.00 0.00 42 1026.4
20200229005025 17 86 14.5 24.1 0.00 0.00 0.00 41 1026.3
20200229004536 17 88 12.9 24.1 0.00 0.00 0.00 40 1026.3
20200229004029 17 61 9.7 25.7 0.00 0.00 0.00 39 1026.3
20200229003525 17 66 11.3 24.1 0.00 0.00 0.00 38 1026.1
20200229003051 18 107 12.9 24.1 0.00 0.00 0.00 38 1026.2
20200229002527 18 104 12.9 22.5 0.00 0.00 0.00 37 1026.1
20200229002025 18 76 12.9 25.7 0.00 0.00 0.00 37 1026.1
20200229001024 19 31 11.3 24.1 0.00 0.00 0.00 36 1026.0
20200229000524 19 91 12.9 27.4 0.00 0.00 0.00 35 1026.0
20200229000054 20 104 16.1 27.4 0.00 0.00 0.00 35 1025.9
20200228235524 20 91 8.0 27.4 0.00 0.00 0.00 35 1025.8
20200228235023 20 45 14.5 24.1 0.00 0.00 0.00 34 1025.8
20200228234554 20 57 11.3 25.7 0.00 0.00 0.00 34 1025.8
20200228234027 20 51 12.9 25.7 0.00 0.00 0.00 34 1025.7
20200228233523 21 65 12.9 25.7 0.00 0.00 0.00 34 1025.5
20200228233107 21 87 12.9 24.1 0.00 0.00 0.00 33 1025.5
20200228232527 21 76 12.9 24.1 0.00 0.00 0.00 33 1025.4
20200228232035 21 70 9.7 22.5 0.00 0.00 0.00 33 1025.4
20200228231025 22 88 8.0 19.3 0.00 0.00 0.00 32 1025.3
20200228230531 22 68 9.7 22.5 0.00 0.00 0.00 32 1025.3
20200228230034 22 74 6.4 17.7 0.00 0.00 0.00 32 1025.3
20200228225529 22 59 8.0 20.9 0.00 0.00 0.00 31 1025.2
20200228225024 23 77 9.7 20.9 0.00 0.00 0.00 31 1025.1
20200228224622 23 47 6.4 16.1 0.00 0.00 0.00 30 1025.1
20200228224023 23 79 1.6 8.0 0.00 0.00 0.00 30 1025.1
20200228223535 24 89 1.6 9.7 0.00 0.00 0.00 29 1025.0
20200228223024 25 63 3.2 6.4 0.00 0.00 0.00 27 1025.1
20200228222522 25 321 0.0 1.6 0.00 0.00 0.00 26 1025.0
20200228222031 25 256 0.0 1.6 0.00 0.00 0.00 27 1024.9
20200228221022 25 5 0.0 1.6 0.00 0.00 0.00 26 1024.9
20200228220521 25 283 0.0 1.6 0.00 0.00 0.00 27 1024.9
20200228220024 24 304 0.0 1.6 0.00 0.00 0.00 28 1025.0
20200228215524 24 272 0.0 1.6 0.00 0.00 0.00 28 1025.0
20200228215024 24 262 0.0 1.6 0.00 0.00 0.00 28 1025.1
20200228214523 23 245 0.0 8.0 0.00 0.00 0.00 28 1025.1
20200228213519 24 243 4.8 20.9 0.00 0.00 0.00 28 1025.1
20200228213055 24 187 3.2 14.5 0.00 0.00 0.00 28 1025.1
20200228212518 24 356 0.0 19.3 0.00 0.00 0.00 29 1025.3
20200228212017 24 284 4.8 19.3 0.00 0.00 0.00 28 1025.3
20200228211024 25 281 0.0 4.8 0.00 0.00 0.00 29 1025.3
20200228210517 24 169 0.0 4.8 0.00 0.00 0.00 30 1025.3
20200228210039 24 39 0.0 1.6 0.00 0.00 0.00 29 1025.5
20200228205515 24 307 0.0 0.0 0.00 0.00 0.00 30 1025.5
20200228205023 24 266 0.0 1.6 0.00 0.00 0.00 30 1025.5
20200228204524 24 294 0.0 12.9 0.00 0.00 0.00 31 1025.6
20200228204034 23 287 4.8 12.9 0.00 0.00 0.00 31 1025.7
20200228203514 23 10 1.6 9.7 0.00 0.00 0.00 31 1025.7
20200228203054 23 117 0.0 9.7 0.00 0.00 0.00 31 1025.8
20200228202518 24 27 1.6 8.0 0.00 0.00 0.00 30 1025.9
20200228202025 24 18 1.6 9.7 0.00 0.00 0.00 31 1026.0
20200228201017 22 302 4.8 9.7 0.00 0.00 0.00 32 1026.2
20200228200512 23 77 6.4 14.5 0.00 0.00 0.00 32 1026.3
20200228200012 23 314 0.0 14.5 0.00 0.00 0.00 31 1026.3
20200228195520 23 270 0.0 1.6 0.00 0.00 0.00 32 1026.4
20200228195018 23 301 0.0 8.0 0.00 0.00 0.00 33 1026.6
20200228194545 23 245 0.0 9.7 0.00 0.00 0.00 32 1026.6
20200228194010 23 309 0.0 9.7 0.00 0.00 0.00 32 1026.7
20200228193523 23 283 1.6 12.9 0.00 0.00 0.00 32 1026.8
20200228193005 23 278 8.0 9.7 0.00 0.00 0.00 32 1026.9
20200228192510 23 274 0.0 6.4 0.00 0.00 0.00 33 1026.9
20200228192009 22 301 0.0 8.0 0.00 0.00 0.00 33 1027.0
20200228191006 22 25 0.0 4.8 0.00 0.00 0.00 33 1027.2
20200228190504 22 284 0.0 4.8 0.00 0.00 0.00 35 1027.3
20200228190006 22 307 0.0 9.7 0.00 0.00 0.00 35 1027.4
20200228185634 21 6 1.6 9.7 0.00 0.00 0.00 35 1027.5
20200228185100 21 303 0.0 8.0 0.00 0.00 0.00 36 1027.6
20200228184111 21 319 0.0 1.6 0.00 0.00 0.00 35 1027.8
20200228183558 21 263 0.0 14.5 0.00 0.00 0.00 37 1027.9
20200228183120 21 260 8.0 14.5 0.00 0.00 0.00 37 1028.0
20200228182555 20 281 0.0 12.9 0.00 0.00 0.00 38 1028.1
20200228182058 20 308 3.2 12.9 0.00 0.00 0.00 38 1028.3
20200228181022 20 32 0.0 8.0 0.00 0.00 0.00 38 1028.4
20200228180541 20 284 0.0 8.0 0.00 0.00 0.00 38 1028.6
20200228180026 19 269 0.0 1.6 0.00 0.00 0.00 41 1028.7
20200228175512 19 270 0.0 1.6 0.00 0.00 0.00 41 1028.8
20200228175012 19 283 0.0 1.6 0.00 0.00 0.00 40 1028.8
20200228174540 19 291 0.0 1.6 0.00 0.00 0.00 40 1029.0
20200228174014 18 232 0.0 0.0 0.00 0.00 0.00 41 1029.1
20200228173512 18 267 0.0 0.0 0.00 0.00 0.00 42 1029.1
20200228173011 18 15 0.0 0.0 0.00 0.00 0.00 43 1029.2
20200228172508 17 358 0.0 0.0 0.00 0.00 0.00 44 1029.3
20200228172009 17 46 0.0 0.0 0.00 0.00 0.00 46 1029.4
20200228170546 16 302 0.0 0.0 0.00 0.00 0.00 47 1029.5
20200228170112 16 57 0.0 4.8 0.00 0.00 0.00 47 1029.6
20200228165545 16 77 0.0 4.8 0.00 0.00 0.00 49 1029.7
20200228165044 15 43 0.0 4.8 0.00 0.00 0.00 49 1029.8
20200228164600 15 263 0.0 1.6 0.00 0.00 0.00 50 1029.8
20200228164043 15 276 0.0 1.6 0.00 0.00 0.00 50 1029.8
20200228163616 15 260 0.0 1.6 0.00 0.00 0.00 51 1029.8
20200228163106 14 281 0.0 0.0 0.00 0.00 0.00 53 1029.9
20200228162542 13 267 0.0 1.6 0.00 0.00 0.00 54 1029.9
20200228162037 13 303 0.0 1.6 0.00 0.00 0.00 54 1030.0
20200228160536 12 253 0.0 1.6 0.00 0.00 0.00 57 1029.9
20200228160059 12 319 0.0 1.6 0.00 0.00 0.00 57 1029.9
20200228155549 12 307 0.0 1.6 0.00 0.00 0.00 58 1029.9
20200228155034 12 294 0.0 1.6 0.00 0.00 0.00 57 1029.8
20200228154649 12 256 0.0 0.0 0.00 0.00 0.00 57 1029.8
20200228154040 12 277 0.0 0.0 0.00 0.00 0.00 58 1029.8
20200228153534 11 30 0.0 0.0 0.00 0.00 0.00 59 1029.7
20200228153108 11 72 0.0 3.2 0.00 0.00 0.00 60 1029.7
20200228152543 11 80 0.0 3.2 0.00 0.00 0.00 60 1029.6
20200228152030 11 79 0.0 4.8 0.00 0.00 0.00 61 1029.6
20200228150534 10 86 3.2 6.4 0.00 0.00 0.00 62 1029.1
20200228150059 10 84 0.0 3.2 0.00 0.00 0.00 62 1029.1
20200228145529 10 84 0.0 1.6 0.00 0.00 0.00 63 1029.1
20200228145042 10 84 0.0 1.6 0.00 0.00 0.00 64 1029.1
20200228144537 10 72 0.0 0.0 0.00 0.00 0.00 65 1028.9
20200228144027 9 71 0.0 0.0 0.00 0.00 0.00 66 1028.9
20200228143528 8 84 0.0 0.0 0.00 0.00 0.00 68 1028.9
20200228143038 8 84 0.0 0.0 0.00 0.00 0.00 69 1028.9
20200228142527 7 84 0.0 1.6 0.00 0.00 0.00 70 1028.9
20200228142027 7 91 0.0 1.6 0.00 0.00 0.00 72 1028.7
20200228140529 6 82 0.0 0.0 0.00 0.00 0.00 74 1028.5
20200228140048 6 82 0.0 0.0 0.00 0.00 0.00 75 1028.5
20200228135531 5 82 0.0 0.0 0.00 0.00 0.00 75 1028.5
20200228135023 -17 0.0 0.0 0.00 0.00 0.00 1028.4
20200228134550 -17 0.0 0.0 0.00 0.00 0.00 1028.4
20200228134019 -17 0.0 0.0 0.00 0.00 0.00 1028.3
20200228133546 -17 0.0 0.0 0.00 0.00 0.00 1028.3
20200228133048 -17 0.0 0.0 0.00 0.00 0.00 1028.1
20200228132536 -17 0.0 0.0 0.00 0.00 0.00 1028.1
20200228132014 -17 0.0 0.0 0.00 0.00 0.00 1028.1
20200228130516 -17 0.0 0.0 0.00 0.00 0.00 1027.9
20200228130025 -17 0.0 0.0 0.00 0.00 0.00 1027.9
20200228125532 -17 0.0 0.0 0.00 0.00 0.00 1027.7
20200228125010 -17 0.0 0.0 0.00 0.00 0.00 1027.7
20200228124516 -17 0.0 0.0 0.00 0.00 0.00 1027.6
20200228124008 -17 0.0 0.0 0.00 0.00 0.00 1027.6
20200228123507 -17 0.0 0.0 0.00 0.00 0.00 1027.6
20200228123016 -17 0.0 0.0 0.00 0.00 0.00 1027.6
20200228122505 -17 0.0 0.0 0.00 0.00 0.00 1027.5
20200228122005 -17 0.0 0.0 0.00 0.00 0.00 1027.4
20200228120503 -17 0.0 0.0 0.00 0.00 0.00 1027.4
20200228120203 -17 0.0 0.0 0.00 0.00 0.00 1027.3
20200228115602 -17 0.0 0.0 0.00 0.00 0.00 1027.3
20200228115103 -17 0.0 0.0 0.00 0.00 0.00 1027.2
20200228114711 -17 0.0 0.0 0.00 0.00 0.00 1027.2
20200228114126 -17 0.0 0.0 0.00 0.00 0.00 1027.3
20200228113554 -17 0.0 0.0 0.00 0.00 0.00 1027.2
20200228113104 -17 0.0 0.0 0.00 0.00 0.00 1027.1
20200228112601 -17 0.0 0.0 0.00 0.00 0.00 1027.1
20200228112049 -17 0.0 0.0 0.00 0.00 0.00 1027.0
20200228110548 -17 0.0 0.0 0.00 0.00 0.00 1026.9
20200228110118 -17 0.0 0.0 0.00 0.00 0.00 1027.0
20200228105546 -17 0.0 0.0 0.00 0.00 0.00 1027.0
20200228105051 -17 0.0 0.0 0.00 0.00 0.00 1027.0
20200228104626 6 104 0.0 0.0 0.00 0.00 0.00 71 1027.0